FLOCK 3R-4 (43733 NORAD) Tracking and Keplerian Element Data

This shows tracking and keplerian element data for the satellite.

Feedback or suggestion? Click here.




ElementValue
Catalog43733
NameFLOCK 3R-4
Epoch Orbit456
Epoch Day363.12522278
Epoch Year2018
RAAN68.1797
Inclination97.483
Eccentricity0.0020847
Argument of Perigee219.4465
Mean Anonmoly198.5744
Mean Motion15.26740922
Decay Rate8.54E-06
L11 43733U 18096Q 18363.12522278 .00000854 00000-0 35199-4 0 9992
L22 43733 97.4830 68.1797 0020847 219.4465 198.5744 15.26740922 4564

Live tracking and technical data element details for FLOCK 3R-4 (NORAD 43733). FLOCK 3R-4 can be tracked NOW for your location showing map with azimuth and elevation plus other details from your city location.

Track the satellite on the map from your city or location and see movement details for azimuth, elevation, latitude, longitude, range, height, and movement on the map or in text.







IsCatalogInMostPopularTable: catalog: 43733, numindb: 142
Update: records affected: 1



GetName: 43733 FLOCK 3R-4

Hit Count: updated at: Wed, 17 Jul 2019 09:06:21 GMT